Regional Weather Roundup
Issued by NWS

Home | Current Version | Previous Version | Text Only | Print | Product List | Glossary Off
Versions: 1 2 3 4 5 6 7 8 9 10 11 12 13 14 15 16 17 18 19 20 21 22 23 24 25 26 27 28 29 30 31 32 33 34 35 36 37 38 39 40 41 42 43 44 45 46 47 48 49 50

000
ASUS43 KDMX 220806
RWRIA

WEATHER ROUNDUP FOR IOWA
NATIONAL WEATHER SERVICE DES MOINES IA
300 AM CDT FRI SEP 22 2017

NOTE: "FAIR" INDICATES FEW OR NO CLOUDS BELOW 12,000 FEET WITH NO
SIGNIFICANT WEATHER AND/OR OBSTRUCTIONS TO VISIBILITY.

* - THESE STATIONS ARE NOT NWS STATIONS...THUS NOT UNDER NWS
QUALITY CONTROL.  THEY ALSO DO NOT REPORT WEATHER SUCH
AS PRECIPITATION OR FOG.

IAZ001>003-012>014-020>022-031>034-043>046-220900-
   NORTHWEST IOWA

CITY           SKY/WX    TMP DP  RH WIND       PRES   REMARKS
CARROLL *      CLEAR     77  72  83 S15G21    29.85S
CHEROKEE *     PTCLDY    76  73  92 S10G16    29.81S
DENISON *      PTCLDY    77  72  83 S17G29    29.84S
LE MARS *      PTCLDY    79  73  83 S15G25    29.76F HX  82
ORANGE CITY *  PTCLDY    77  75  94 S10G17    29.79S
SHELDON *      CLEAR     75  72  88 S13G21    29.77F
SIOUX CITY     PTCLDY    78  74  87 S12       29.77R HX  81
SPENCER        CLEAR     75  71  87 S12       29.81S
STORM LAKE *   PTCLDY    75  72  88 S14       29.83S
$$

IAZ055>058-069>071-079>083-090>094-220900-
   SOUTHWEST IOWA

CITY           SKY/WX    TMP DP  RH WIND       PRES   REMARKS
ATLANTIC *     CLEAR     77  72  83 S12G20    29.86S
AUDUBON *      CLEAR     77  72  83 S12G20    29.88S
CLARINDA *     CLEAR     77  72  83 S9        29.90S
COUNCIL BLFS * PTCLDY    77  75  94 S13       29.84F
CRESTON *      CLEAR     77  70  78 S12       29.92F
HARLAN  *      CLEAR     77  73  88 S15G22    29.88F
LAMONI         CLEAR     76  70  82 S12       29.93S
RED OAK *      MOCLDY    77  72  83 S13       29.87S
SHENANDOAH *   CLEAR     79  72  78 S16G26    29.86F HX  82
$$

IAZ047>049-059>061-072>074-084-220900-
   CENTRAL IOWA

CITY           SKY/WX    TMP DP  RH WIND       PRES   REMARKS
AMES           CLEAR     72  70  93 SE7       29.89S
ANKENY *       CLEAR     75  70  83 S5        29.90S
BOONE *        CLEAR     75  70  83 S7G13     29.88S
CHARITON *     CLEAR     73  68  83 S9        29.92F
DES MOINES     PTCLDY    78  70  76 S10       29.89S HX  80
GRINNELL*      CLEAR     73  69  87 S7        29.95R
KNOXVILLE *    PTCLDY    75  68  78 S6        29.91S
MARSHALLTOWN   CLEAR     74  71  91 SE8       29.91S
NEWTON *       PTCLDY    73  68  83 S7        29.92F
PELLA *        PTCLDY    75  67  77 SE5       29.93F
PERRY *          N/A     78  72  82 S10       29.87F HX  81
$$

IAZ004>006-015-016-023>025-035-036-220900-
   NORTH CENTRAL IOWA

CITY           SKY/WX    TMP DP  RH WIND       PRES   REMARKS
ALGONA *       CLEAR     77  72  83 S14G21    29.85F
CLARION *      CLEAR     75  72  88 S12       29.87F
ESTHERVILLE    CLEAR     73  71  93 S13       29.82S
FORT DODGE *   CLEAR     78  70  76 S14       29.86S HX  80
MASON CITY     CLEAR     72  68  87 S10       29.90F
FOREST CITY *    N/A     73  70  88 S10       29.87F
WEBSTER CITY * CLEAR     73  70  88 S8        29.86S
IOWA FALLS *     N/A     73  69  87 SE8       29.91S
$$

IAZ007>011-017>019-026>030-037>042-050>054-066-220900-
   NORTHEAST IOWA

CITY           SKY/WX    TMP DP  RH WIND       PRES   REMARKS
CEDAR RAPIDS   CLEAR     75  69  81 S9        29.96R
CHARLES CITY * CLEAR     75  72  88 S10       29.92S
CLINTON *      CLEAR    N/A N/A N/A S8        30.00S
DECORAH *      CLEAR     75  70  83 S8G14     29.93F
DUBUQUE        CLEAR     72  68  87 S13       29.99S
MONTICELLO *   CLEAR     72  68  88 SE9       29.97S
OELWEIN *      CLEAR     75  72  88 S13       29.95S
WATERLOO       CLEAR     73  69  87 SE12      29.91S
$$

IAZ064-065-067-068-078-220900-
   EAST CENTRAL IOWA

CITY           SKY/WX    TMP DP  RH WIND       PRES   REMARKS
DAVENPORT      CLEAR     74  68  81 S7        30.01S
IOWA CITY      PTCLDY    72  68  87 SE5       29.97S
MT. PLEASANT * CLEAR     72  67  85 SE8       29.98S
MUSCATINE *    CLEAR     68  66  94 CALM      29.98S
QUAD CITIES    CLEAR     76  68  76 S7        29.99R
$$

IAZ062-063-075>077-085>089-095>099-220900-
   SOUTHEAST IOWA

CITY           SKY/WX    TMP DP  RH WIND       PRES   REMARKS
BURLINGTON     CLEAR     76  69  79 S9        29.99R
FAIRFIELD *    PTCLDY    75  68  78 S9        29.96R
FORT MADISON * CLEAR     75  70  83 S7        30.00R
KEOKUK *       CLEAR     79  68  69 S8        29.98S HX  81
OSKALOOSA *      N/A     73  69  89 S7        29.96R
OTTUMWA        CLEAR     76  70  82 S9        29.95R
WASHINGTON *   PTCLDY    73  70  88 S6        29.98R
$$

ABBREVIATIONS USED IN REMARKS
   TC - TEMPERATURES IN CELSIUS
  WCI - WIND CHILL INDEX
   HX - HEAT INDEX
  VSB - VISIBILITY
$$




USA.gov is the U.S. government's official web portal to all federal, state and local government web resources and services.